#timestamp,LO_Frequency,Hit,StdDev 
1456477215.5,286047009.5,N
1456477235.3,286047007.3,N
1456477255.2,286047004.9,N
1456477275.9,286047004.7,N
1456477295.7,286047005.4,N
1456477315.6,286047008.9,N
1456477335.4,286047006.2,N
1456477355.2,286047007.0,N
1456477375.0,286047005.5,N
1456477375.9,286047005.5,N
1456477395.8,286047009.1,N
1456477415.6,286047008.4,N
1456477435.4,286047006.8,N
1456477455.3,286047012.3,Y
1456477475.1,286047008.6,P
1456477495.8,286047008.1,P
1456477515.7,286047008.3,P
1456477535.5,286047007.4,Y
1456477555.3,286047000.8,P
1456477575.2,286046996.6,N
1456477595.0,286046995.4,N
1456477595.9,286046995.4,N
1456477615.7,286046996.7,N
1456477635.6,286046997.3,N
1456477655.4,286046998.4,N
1456477675.2,286047000.1,N
1456477695.1,286047002.1,N
1456477696.0,286047002.1,N
1456477715.8,286046999.6,N
1456477735.6,286046997.0,N
1456477755.5,286046997.6,N
1456477775.3,286046996.3,N
1456477795.1,286046997.5,N
1456477815.9,286046996.0,N
1456477835.7,286046993.9,N
1456477855.5,286046996.1,N
1456477875.3,286046994.2,N
1456477895.2,286046992.7,N
1456477915.0,286046993.3,N
1456477915.9,286046993.3,N
1456477935.7,286046990.6,N
1456477955.6,286046988.6,Y
1456477975.4,286046992.5,P
1456477995.2,286046990.4,P
1456478015.1,286046991.2,P
1456478016.0,286046991.2,Y
1456478035.8,286046998.8,P
1456478055.7,286046996.9,N
1456478075.5,286046997.0,N
1456478095.3,286046996.7,N
1456478115.1,286046998.2,N
1456478135.9,286047000.9,N
1456478155.7,286047002.2,N
1456478175.5,286047000.4,N
1456478195.4,286047001.1,N
1456478215.2,286046998.2,N
1456478235.0,286047004.2,N
1456478235.9,286047004.2,N
1456478255.8,286047006.9,N
1456478275.6,286047007.7,N
1456478295.4,286047007.8,N
1456478315.3,286047009.8,N
1456478335.1,286047009.3,N
1456478336.0,286047009.3,N
1456478355.8,286047009.1,N
1456478375.7,286047008.7,N
1456478395.5,286047010.1,N
1456478415.3,286047009.5,N
1456478435.1,286047009.3,N
1456478455.9,286047010.9,N
1456478475.7,286047011.7,N
1456478495.5,286047013.6,N
1456478515.4,286047013.8,N
1456478535.2,286047014.4,N
1456478555.0,286047013.4,N
1456478555.9,286047013.4,N
1456478575.8,286047013.6,N
1456478595.6,286047014.4,N
1456478615.4,286047017.5,Y
1456478635.3,286047012.0,P
1456478655.1,286047015.0,P
1456478656.0,286047015.0,P
1456478675.8,286047015.8,Y
1456478695.7,286047005.8,P
1456478715.5,286047001.7,N
1456478735.3,286046998.1,N
1456478755.2,286046998.6,N
1456478775.9,286046998.6,N
1456478795.7,286047002.8,N
1456478815.6,286047003.8,N
1456478835.4,286047002.8,N
1456478855.2,286047001.8,N
1456478875.1,286047003.8,N
1456478876.0,286047003.8,N
1456478895.8,286047001.8,N
1456478915.6,286047000.0,N
1456478935.4,286046998.7,N
1456478955.3,286046997.1,N
1456478975.1,286046994.9,N
1456478995.8,286046994.0,N
1456479015.7,286046990.8,N
1456479035.5,286046992.6,N
1456479055.3,286046990.6,N
1456479075.2,286046990.9,N
1456479095.9,286046992.3,N
1456479115.7,286046994.8,N
1456479135.6,286046992.3,N
1456479155.4,286046992.8,N
1456479175.2,286046992.9,N
1456479195.1,286046992.3,N
1456479196.0,286046992.3,N
1456479215.8,286046994.0,N
1456479235.6,286046994.6,N
1456479255.4,286046994.4,N
1456479275.3,286046994.4,N
1456479295.1,286046990.6,N
1456479315.8,286046993.1,N
1456479335.7,286046992.6,N
1456479355.5,286046990.5,N
1456479375.3,286046990.7,N
1456479395.2,286046990.9,N
1456479415.9,286046992.6,N
1456479435.7,286046992.7,N
1456479455.6,286046993.0,N
1456479475.4,286046991.2,Y
1456479495.2,286046996.4,P
1456479515.1,286046995.9,N
1456479516.0,286046995.9,P
1456479535.8,286046997.8,N
1456479555.6,286046995.1,Y
1456479575.5,286046998.9,P
1456479595.3,286047000.9,N
1456479615.1,286046998.3,N
1456479635.9,286046996.9,N
1456479655.7,286046995.7,N
1456479675.5,286046994.0,Y
1456479695.4,286046997.3,P
1456479715.2,286046995.0,P
1456479735.0,286047001.0,N
1456479735.9,286047001.0,N
1456479755.8,286046996.5,N
1456479775.6,286046994.9,N
1456479795.4,286046993.5,N
1456479815.3,286046994.1,N
1456479835.1,286046990.2,Y
1456479836.0,286046990.2,P
1456479855.8,286046992.7,N
1456479875.7,286046991.3,P
1456479895.5,286046991.4,Y
1456479915.3,286046994.0,P
1456479935.2,286046994.0,P
1456479955.9,286046994.1,P
1456479975.7,286046991.5,Y
1456479995.6,286046995.4,P
1456480015.4,286046997.9,N
1456480035.2,286046998.3,N
1456480055.1,286047000.9,N
1456480056.0,286047000.9,N
1456480075.8,286046998.7,N
1456480095.6,286046996.7,N
1456480115.5,286047001.0,N
1456480135.3,286046998.3,N
1456480155.1,286046998.2,N
1456480175.8,286047001.7,N
1456480195.7,286047003.8,N
1456480215.5,286047003.0,N
1456480235.3,286047002.9,N
1456480255.2,286047003.7,N
1456480275.9,286047001.9,N
1456480295.7,286047005.2,N
1456480315.6,286047004.5,N
1456480335.4,286047005.9,N
1456480355.2,286047004.5,N
1456480375.0,286047006.7,N
1456480376.0,286047006.7,N
1456480395.8,286047006.2,N
1456480415.6,286047008.5,N
1456480435.4,286047010.2,N
1456480455.3,286047010.9,N
1456480475.1,286047014.6,Y
1456480495.8,286047015.0,P
1456480515.7,286047017.2,N
1456480535.5,286047020.4,P
1456480555.3,286047017.6,N
1456480575.2,286047017.7,N
1456480595.9,286047021.9,Y
1456480615.7,286047004.4,P
1456480635.6,286047002.5,N
1456480655.4,286047002.8,N
1456480675.2,286047002.8,N
1456480695.1,286047002.7,N
1456480696.0,286047002.7,N
1456480715.8,286047000.2,N
1456480735.6,286046999.0,N
1456480755.5,286046999.4,N
1456480775.3,286046999.4,N
1456480795.1,286046997.1,N
